TimeEST,TemperatureF,Dew PointF,Humidity,Sea Level PressureIn,VisibilityMPH,Wind Direction,Wind SpeedMPH,Gust SpeedMPH,PrecipitationIn,Events,Conditions,WindDirDegrees,DateUTC
12:53 AM,37.0,30.0,76,30.09,10.0,Calm,Calm,-,N/A,,Overcast,0,2013-01-01 05:53:00
1:33 AM,37.4,30.2,75,30.09,10.0,Calm,Calm,-,N/A,,Overcast,0,2013-01-01 06:33:00
1:53 AM,37.0,30.0,76,30.08,10.0,Calm,Calm,-,N/A,,Overcast,0,2013-01-01 06:53:00
2:41 AM,37.4,30.2,75,30.08,10.0,Calm,Calm,-,N/A,,Overcast,0,2013-01-01 07:41:00
2:53 AM,37.0,30.0,76,30.07,10.0,Calm,Calm,-,N/A,,Overcast,0,2013-01-01 07:53:00
3:53 AM,37.0,30.9,79,30.07,7.0,Calm,Calm,-,0.00,Rain,Light Rain,0,2013-01-01 08:53:00
4:19 AM,35.6,32.0,87,30.08,4.0,Calm,Calm,-,0.00,Rain,Light Rain,0,2013-01-01 09:19:00
4:53 AM,35.1,33.1,92,30.06,3.0,SSE,6.9,-,0.02,Rain,Light Rain,150,2013-01-01 09:53:00
5:01 AM,35.6,33.8,93,30.06,3.0,ESE,3.5,-,0.00,Rain,Rain,120,2013-01-01 10:01:00
5:14 AM,35.6,33.8,93,30.07,4.0,Calm,Calm,-,0.01,Rain,Light Rain,0,2013-01-01 10:14:00
5:53 AM,36.0,34.0,93,30.06,3.0,Calm,Calm,-,0.02,Rain,Light Rain,0,2013-01-01 10:53:00
6:53 AM,36.0,35.1,97,30.08,3.0,Calm,Calm,-,0.02,Rain,Light Rain,0,2013-01-01 11:53:00
7:50 AM,35.6,33.8,93,30.09,2.5,Calm,Calm,-,0.02,Rain,Light Rain,0,2013-01-01 12:50:00
7:53 AM,36.0,34.0,93,30.09,2.5,Calm,Calm,-,0.03,Rain,Light Rain,0,2013-01-01 12:53:00
8:31 AM,37.4,35.6,93,30.08,2.0,Calm,Calm,-,0.01,,Overcast,0,2013-01-01 13:31:00
8:53 AM,37.0,35.1,93,30.07,2.0,Calm,Calm,-,0.01,Rain,Light Rain,0,2013-01-01 13:53:00
9:39 AM,37.4,35.6,93,30.04,2.0,North,3.5,-,0.01,Rain,Light Rain,360,2013-01-01 14:39:00
9:46 AM,37.4,35.6,93,30.03,2.0,Variable,3.5,-,0.01,,Overcast,0,2013-01-01 14:46:00
9:53 AM,37.9,36.0,93,30.06,2.0,NNW,8.1,-,0.01,,Overcast,340,2013-01-01 14:53:00
10:14 AM,37.4,35.6,93,30.08,2.0,NW,9.2,-,N/A,,Overcast,310,2013-01-01 15:14:00
10:32 AM,39.2,35.6,87,30.04,2.0,SSE,6.9,-,N/A,,Overcast,160,2013-01-01 15:32:00
10:53 AM,39.0,36.0,89,30.06,2.5,Calm,Calm,-,0.00,Rain,Light Rain,0,2013-01-01 15:53:00
11:53 AM,39.9,37.9,93,30.04,2.5,NW,13.8,-,0.01,,Overcast,320,2013-01-01 16:53:00
12:53 PM,39.9,37.9,93,29.99,2.5,Calm,Calm,-,N/A,,Overcast,0,2013-01-01 17:53:00
1:53 PM,41.0,39.9,96,29.98,2.5,South,4.6,-,N/A,,Overcast,180,2013-01-01 18:53:00
2:04 PM,41.0,39.2,93,29.98,2.5,SW,3.5,-,0.00,Rain,Light Rain,220,2013-01-01 19:04:00
2:53 PM,41.0,39.9,96,29.94,2.0,SSE,3.5,-,0.01,Rain,Light Rain,160,2013-01-01 19:53:00
3:53 PM,42.1,41.0,96,29.98,2.0,Calm,Calm,-,0.05,Rain,Rain,0,2013-01-01 20:53:00
4:53 PM,42.1,41.0,96,29.99,1.5,Calm,Calm,-,0.05,Rain,Rain,0,2013-01-01 21:53:00
5:18 PM,42.8,41.0,93,29.99,1.0,SSE,3.5,-,0.02,Rain,Light Rain,150,2013-01-01 22:18:00
5:50 PM,42.8,41.0,93,29.99,1.0,Calm,Calm,-,0.03,,Overcast,0,2013-01-01 22:50:00
5:53 PM,42.1,41.0,96,29.98,1.0,Calm,Calm,-,0.03,,Overcast,0,2013-01-01 22:53:00
6:06 PM,42.8,41.0,93,30.00,1.0,Calm,Calm,-,0.00,Rain,Light Rain,0,2013-01-01 23:06:00
6:53 PM,42.1,41.0,96,29.98,1.0,Calm,Calm,-,0.02,Rain,Light Rain,0,2013-01-01 23:53:00
7:38 PM,42.8,41.0,93,30.00,1.0,Calm,Calm,-,0.04,Rain,Rain,0,2013-01-02 00:38:00
7:53 PM,42.1,41.0,96,29.99,1.0,Calm,Calm,-,0.07,Rain,Light Rain,0,2013-01-02 00:53:00
8:04 PM,42.8,41.0,93,30.00,1.0,Calm,Calm,-,0.01,Rain,Light Rain,0,2013-01-02 01:04:00
8:53 PM,42.1,41.0,96,29.98,1.0,Calm,Calm,-,0.07,Rain,Light Rain,0,2013-01-02 01:53:00
9:53 PM,42.1,41.0,96,29.97,1.0,Calm,Calm,-,0.02,Rain,Light Rain,0,2013-01-02 02:53:00
10:16 PM,42.8,41.0,93,29.99,1.0,Calm,Calm,-,0.03,Rain,Light Rain,0,2013-01-02 03:16:00
10:42 PM,42.8,41.0,93,29.99,1.0,Calm,Calm,-,0.04,Rain,Light Rain,0,2013-01-02 03:42:00
10:53 PM,42.1,41.0,96,29.96,1.0,Calm,Calm,-,0.05,Rain,Light Rain,0,2013-01-02 03:53:00
11:53 PM,42.1,41.0,96,29.97,1.0,Calm,Calm,-,0.00,Rain,Light Rain,0,2013-01-02 04:53:00